Wind_Speed
80 79 76 70 65 57 52 51 50 54 51 50 55 50 56 60 57 58 61 66 70 73 77 80 77 74 74 77 78 79 80 83 86 91 95 100 108 114 118 120 120 124 132 137
69 63 63 58 54 50 48 48 49 49 49 48 51 49 56 57 56 59 64 69 72 76 81 78 75 74 74 74 75 78 78 80 82 86 90 95 100 108 115 117 117 119 123 130
64 63 61 59 56 54 53 51 51 50 51 50 52 51 58 58 58 62 67 71 74 79 78 78 76 74 71 70 75 77 78 78 79 81 85 89 93 100 105 111 116 119 120 123
72 71 69 66 63 62 59 57 54 53 51 50 56 48 57 58 60 64 69 72 76 78 76 79 75 71 69 68 71 70 69 70 72 73 76 81 88 92 96 102 109 114 117 119
76 75 73 71 69 66 63 61 57 56 54 50 56 56 55 57 63 67 71 72 75 73 76 75 72 73 68 62 60 56 56 58 60 61 63 68 75 83 90 95 96 101 107 116
76 76 75 73 72 71 66 65 60 58 55 52 55 56 57 59 64 68 70 72 71 73 70 69 71 67 64 58 51 51 54 56 58 56 56 57 62 68 77 82 87 91 95 100
69 67 65 64 63 62 59 59 55 54 50 52 55 55 57 59 63 66 68 67 68 68 65 66 64 63 59 50 44 47 53 57 59 56 51 48 52 59 66 73 76 78 82 87
57 55 54 54 55 53 49 50 49 50 51 52 54 53 54 59 60 62 61 62 63 60 61 59 60 60 51 40 40 43 49 57 57 53 48 42 42 46 53 59 65 69 73 79
49 46 42 42 43 42 40 42 42 47 47 45 48 50 55 55 57 57 58 57 53 56 54 57 58 53 41 33 34 38 43 51 56 50 43 37 33 34 39 46 53 61 66 71
41 36 34 35 29 28 30 31 41 44 42 39 45 48 49 52 53 53 53 49 48 48 50 52 54 43 29 27 30 33 37 44 49 50 42 36 30 27 30 37 41 47 55 63
34 29 27 29 22 14 21 38 42 43 40 35 41 45 44 47 48 50 46 43 44 42 46 46 48 36 25 24 29 30 31 35 40 44 44 34 29 23 23 26 30 35 41 49
27 21 24 27 23 31 33 39 37 35 32 36 38 40 41 43 45 43 40 37 37 36 38 40 42 32 21 22 26 25 23 28 33 33 35 34 26 20 17 17 19 23 29 35
20 25 31 30 26 32 38 29 32 29 32 32 33 35 39 40 40 37 34 32 31 31 31 34 35 29 20 22 23 25 27 28 30 31 32 29 25 19 11 8 8 13 18 24
24 36 36 34 35 42 39 32 29 29 27 27 30 31 34 36 34 31 30 29 27 25 23 26 28 24 18 19 21 26 31 33 32 33 37 34 28 22 17 14 7 1 8 13
34 40 41 41 36 35 31 29 26 22 22 25 27 29 32 30 30 28 27 26 24 21 18 19 25 25 24 23 25 28 30 34 37 39 41 42 42 38 31 23 16 13 10 10
36 28 39 37 32 26 28 23 21 19 20 23 25 25 30 26 29 27 25 22 20 18 17 16 18 24 28 30 31 32 33 33 36 41 44 44 47 49 48 47 42 34 29 23
38 33 31 32 29 27 27 22 18 17 18 20 22 24 29 27 29 27 22 19 19 17 15 15 17 20 26 30 31 33 37 40 42 44 42 42 46 48 50 51 50 49 46 41
38 39 34 34 33 35 28 23 19 17 15 18 19 22 26 29 27 25 21 17 16 15 15 16 18 22 27 30 32 35 37 39 40 41 42 44 44 44 45 46 45 45 45 43
40 40 41 40 36 37 29 24 21 16 14 15 18 20 25 29 25 24 21 16 10 12 14 17 20 23 27 30 32 34 36 37 39 41 42 42 43 42 42 43 40 38 37 36
43 46 42 44 42 37 32 27 23 18 14 13 17 18 21 23 21 16 15 11 9 10 10 13 15 18 23 27 30 33 34 35 37 39 41 42 43 42 41 40 37 36 35 32
39 48 45 44 44 39 35 30 24 19 15 14 15 16 17 22 19 17 15 11 8 6 6 10 12 19 25 28 32 34 35 35 35 35 36 36 37 38 39 40 39 37 34 31
33 47 48 46 46 42 38 34 25 23 17 16 15 15 15 18 17 12 8 5 5 3 6 11 18 22 25 30 31 33 34 35 35 34 36 36 38 37 35 34 32 31 31 30
32 43 53 50 50 46 42 38 29 28 21 16 17 17 15 15 15 9 8 6 5 3 11 18 17 17 19 21 23 25 28 30 31 32 32 32 33 34 35 36 37 33 29 28
34 40 55 55 53 50 45 42 35 31 27 19 18 20 16 15 17 14 13 11 4 9 13 9 14 15 18 18 18 20 22 23 24 26 26 26 26 28 30 30 31 30 28 25
39 38 55 59 58 56 52 47 41 34 31 26 25 22 22 16 14 15 12 6 7 7 3 4 5 6 7 8 11 13 16 17 18 19 19 19 19 21 23 24 24 26 27 26
42 43 53 62 62 59 56 50 46 41 40 34 27 25 24 20 18 17 11 11 9 9 5 4 4 5 5 8 9 10 13 16 17 19 22 22 22 22 23 23 22 22 22 23
Wind_Direction
283 285 286 287 287 284 278 274 274 274 279 276 278 280 283 286 289 290 290 289 290 292 294 297 296 293 289 287 284 278 273 268 263 259 256 254 251 250 250 248 245 241 239 239
285 284 285 284 283 281 275 275 276 278 279 277 277 280 281 284 290 290 290 291 293 296 300 299 297 295 292 290 285 281 277 273 269 264 261 257 254 252 250 249 248 246 241 238
282 282 279 280 278 278 275 274 276 278 279 278 275 278 283 287 291 293 294 295 297 300 303 301 299 299 294 292 289 286 283 279 274 270 266 262 257 254 251 249 248 247 244 241
278 277 277 276 275 275 274 273 272 275 277 278 278 276 284 289 292 294 294 296 301 304 303 303 303 300 298 294 286 282 279 276 273 270 266 263 260 257 253 251 247 245 244 244
275 275 274 273 272 273 271 271 270 272 275 277 277 282 283 288 290 293 297 301 304 305 306 305 306 304 302 299 293 288 285 282 281 278 272 265 259 257 258 255 250 247 244 242
275 274 273 273 271 270 267 267 267 268 271 273 276 281 282 288 291 296 300 304 306 307 307 307 305 308 309 307 299 295 294 294 292 289 282 273 264 258 255 253 251 250 247 244
277 277 275 274 271 268 264 261 260 263 268 271 275 280 286 289 294 297 302 307 308 307 308 307 311 313 314 307 301 298 299 300 300 300 295 283 269 258 254 252 250 247 247 246
276 278 276 272 268 263 260 255 255 258 262 269 275 282 287 291 295 300 307 309 308 309 309 314 316 317 317 309 303 302 302 305 306 309 304 293 277 264 255 250 248 246 243 241
279 276 271 268 267 256 248 247 248 257 265 272 278 283 287 293 299 306 309 311 311 310 315 319 318 321 314 306 306 308 310 313 315 318 316 310 292 275 260 252 247 244 242 240
275 274 265 260 257 235 238 246 250 261 266 274 280 286 292 298 304 308 310 314 309 317 320 319 320 328 319 314 319 322 319 320 324 326 328 322 310 287 268 256 251 247 242 238
279 271 248 243 212 220 227 237 246 257 266 273 281 290 296 301 308 309 314 313 316 322 321 323 326 337 335 332 335 336 329 335 339 336 335 334 323 306 284 269 258 248 240 235
278 247 220 212 201 202 225 238 248 263 271 277 283 292 299 308 310 313 318 318 322 324 325 330 335 349 346 345 352 352 349 359 358 354 350 343 340 328 308 286 267 247 237 230
250 214 194 179 196 216 232 239 251 263 272 279 291 297 306 313 315 319 320 323 323 327 333 336 344 354 349 3 8 13 15 16 19 16 17 9 1 356 345 322 281 246 227 220
220 199 199 195 213 226 231 242 256 265 270 286 292 302 312 318 322 323 327 324 325 333 341 353 5 6 360 3 15 26 29 30 31 35 37 36 36 38 36 27 24 220 204 199
207 200 203 209 213 226 236 245 254 261 277 288 296 310 316 327 330 329 332 329 329 334 353 7 22 27 29 25 28 28 29 31 37 40 43 48 50 51 54 63 80 93 106 148
210 202 212 210 220 230 235 238 251 262 281 287 301 315 325 333 340 341 332 325 323 335 351 13 33 39 40 43 44 45 43 40 36 37 41 45 51 54 57 58 60 64 68 76
210 201 207 217 217 228 233 238 244 261 272 291 305 320 327 340 341 332 323 323 325 341 354 18 38 48 50 49 46 48 49 49 48 45 42 41 46 51 54 57 59 60 63 65
212 216 207 211 212 226 228 230 237 255 265 289 307 323 336 345 337 322 319 323 335 352 5 21 36 52 55 52 50 49 49 49 51 52 49 47 47 48 50 52 55 59 63 67
216 211 212 212 217 228 220 223 233 242 254 285 302 315 331 339 332 321 322 326 349 1 20 39 50 58 63 62 59 57 56 56 54 52 50 50 52 52 52 50 52 55 57 59
220 211 213 217 216 224 217 219 227 232 244 278 300 313 318 331 318 316 317 324 355 4 30 54 54 57 65 67 66 65 61 59 58 58 58 57 56 55 55 55 56 56 55 56
231 214 212 219 221 218 218 219 225 225 231 262 279 304 320 324 325 313 305 313 330 339 29 55 63 77 74 73 73 69 65 64 62 63 63 63 63 64 62 60 58 56 56 58
233 219 210 218 222 216 218 217 220 223 220 254 268 292 310 312 318 315 308 315 320 345 73 81 94 90 82 84 75 77 75 73 73 72 73 71 70 69 69 69 70 70 70 71
232 226 215 217 223 221 215 217 215 224 217 241 264 277 291 303 301 292 293 308 320 144 112 110 93 84 80 75 68 67 64 64 62 63 61 60 61 60 65 66 64 66 68 69
230 228 220 219 222 224 221 221 212 217 217 220 250 259 267 285 295 290 277 289 278 146 128 131 96 85 76 74 66 60 60 60 57 55 54 53 52 51 51 49 47 46 49 49
228 229 221 220 223 222 224 222 219 212 216 212 235 249 256 257 268 280 282 251 197 196 168 112 88 59 62 75 42 40 39 35 33 34 35 36 38 34 34 32 31 31 31 29
227 229 222 221 225 225 225 224 222 214 214 210 223 237 248 252 247 251 223 195 222 219 246 291 302 315 340 333 345 350 352 359 3 4 7 4 2 4 3 360 359 0 4 6
Height
10543 10540 10533 10532 10529 10528 10527 10526 10525 10521 10524 10524 10518 10521 10511 10507 10511 10506 10499 10492 10485 10480 10471 10462 10451 10440 10430 10420 10411 10405 10400 10397 10394 10391 10390 10388 10387 10391 10394 10399 10408 10418 10431 10443
10525 10522 10519 10517 10516 10515 10514 10514 10511 10510 10510 10512 10507 10509 10500 10497 10498 10491 10483 10476 10469 10460 10450 10438 10428 10418 10407 10397 10385 10376 10372 10368 10364 10361 10358 10357 10356 10356 10359 10365 10373 10381 10397 10409
10509 10506 10503 10503 10503 10502 10501 10501 10499 10499 10497 10498 10497 10498 10485 10485 10482 10475 10466 10459 10452 10442 10428 10416 10404 10394 10383 10374 10361 10351 10343 10336 10332 10328 10323 10321 10321 10321 10323 10328 10338 10344 10358 10371
10491 10487 10487 10487 10486 10486 10487 10486 10487 10486 10486 10484 10478 10491 10475 10471 10467 10461 10452 10445 10436 10423 10410 10396 10384 10372 10363 10354 10342 10330 10320 10312 10304 10299 10295 10290 10287 10286 10289 10293 10300 10309 10322 10337
10466 10466 10466 10467 10467 10469 10471 10470 10473 10473 10472 10473 10465 10469 10465 10461 10454 10446 10438 10430 10419 10406 10393 10377 10363 10350 10339 10328 10317 10307 10298 10290 10281 10273 10268 10262 10260 10259 10257 10259 10266 10275 10288 10298
10443 10444 10445 10445 10447 10449 10453 10454 10458 10459 10459 10460 10455 10455 10453 10449 10440 10431 10423 10416 10403 10389 10376 10362 10347 10334 10320 10308 10297 10288 10280 10272 10261 10253 10244 10237 10233 10232 10230 10231 10235 10242 10251 10263
10424 10424 10425 10425 10426 10428 10433 10438 10443 10447 10446 10446 10444 10444 10442 10435 10428 10419 10412 10401 10388 10374 10362 10348 10334 10321 10308 10294 10285 10276 10265 10254 10243 10233 10223 10216 10209 10206 10205 10207 10209 10215 10222 10231
10408 10407 10406 10407 10409 10412 10418 10424 10429 10435 10435 10436 10433 10433 10429 10422 10417 10408 10399 10389 10375 10361 10348 10335 10322 10308 10295 10284 10276 10266 10254 10241 10228 10218 10205 10197 10190 10186 10184 10185 10188 10193 10199 10205
10393 10393 10392 10393 10394 10398 10406 10411 10418 10422 10426 10427 10424 10421 10417 10411 10404 10396 10387 10376 10363 10351 10337 10323 10311 10299 10285 10275 10268 10258 10247 10231 10216 10204 10192 10182 10174 10170 10168 10169 10172 10173 10179 10185
10380 10382 10383 10383 10385 10389 10397 10405 10409 10412 10417 10419 10414 10412 10406 10400 10393 10384 10376 10366 10353 10341 10329 10317 10303 10291 10279 10270 10263 10252 10241 10227 10210 10193 10182 10170 10163 10158 10156 10156 10157 10159 10162 10168
10370 10370 10372 10374 10379 10386 10394 10397 10401 10405 10409 10411 10407 10402 10398 10392 10384 10375 10366 10355 10344 10334 10322 10311 10297 10286 10274 10266 10258 10249 10238 10223 10206 10189 10173 10165 10156 10150 10147 10146 10147 10148 10152 10156
10361 10362 10365 10370 10376 10382 10386 10389 10394 10398 10400 10401 10399 10394 10389 10383 10375 10366 10357 10347 10337 10329 10318 10306 10293 10282 10272 10264 10256 10246 10235 10222 10207 10191 10175 10161 10153 10146 10141 10138 10139 10141 10143 10148
10354 10357 10360 10366 10374 10376 10378 10384 10388 10391 10393 10392 10389 10386 10381 10374 10366 10357 10349 10341 10333 10324 10316 10304 10291 10281 10271 10264 10256 10245 10233 10222 10210 10194 10180 10165 10153 10146 10142 10137 10135 10137 10139 10142
10349 10353 10356 10360 10366 10369 10374 10379 10383 10385 10386 10385 10382 10380 10374 10367 10359 10351 10343 10337 10329 10322 10315 10303 10292 10281 10272 10263 10254 10244 10234 10224 10213 10200 10186 10172 10160 10151 10145 10140 10138 10137 10139 10143
10344 10348 10351 10355 10360 10365 10371 10374 10376 10379 10379 10377 10375 10372 10367 10360 10352 10345 10338 10332 10325 10320 10312 10303 10293 10284 10273 10264 10255 10246 10237 10228 10217 10207 10194 10183 10170 10160 10153 10148 10145 10143 10143 10145
10338 10343 10346 10351 10356 10360 10364 10368 10370 10372 10372 10371 10369 10366 10360 10355 10348 10340 10335 10329 10324 10318 10311 10303 10295 10285 10276 10266 10258 10249 10241 10232 10222 10211 10203 10194 10181 10173 10164 10158 10153 10150 10149 10151
10332 10336 10340 10346 10350 10355 10358 10362 10364 10366 10366 10365 10363 10360 10355 10349 10343 10337 10333 10327 10322 10317 10310 10303 10296 10287 10279 10271 10263 10253 10244 10235 10227 10219 10213 10205 10195 10187 10180 10175 10170 10167 10165 10166
10326 10330 10334 10339 10343 10347 10352 10355 10358 10360 10361 10359 10358 10355 10351 10346 10342 10336 10331 10325 10320 10315 10309 10303 10296 10290 10282 10275 10268 10259 10250 10242 10235 10229 10223 10215 10207 10201 10196 10192 10190 10189 10188 10189
10317 10323 10327 10330 10335 10340 10345 10348 10352 10354 10355 10355 10354 10351 10347 10344 10340 10336 10330 10324 10319 10315 10310 10304 10299 10293 10286 10280 10273 10266 10260 10253 10245 10239 10232 10226 10220 10215 10210 10206 10204 10203 10202 10203
10308 10313 10318 10322 10327 10332 10336 10341 10345 10348 10351 10351 10350 10348 10345 10343 10339 10335 10330 10325 10320 10315 10310 10305 10301 10296 10290 10284 10278 10272 10267 10261 10255 10249 10243 10237 10232 10227 10223 10220 10218 10216 10215 10215
10298 10303 10309 10313 10318 10324 10329 10335 10339 10344 10345 10346 10345 10343 10341 10338 10336 10332 10329 10325 10321 10316 10311 10306 10302 10298 10293 10288 10283 10279 10274 10268 10263 10257 10252 10248 10243 10239 10235 10232 10230 10228 10227 10227
10290 10295 10301 10305 10310 10317 10324 10328 10334 10337 10339 10341 10341 10340 10339 10337 10334 10330 10328 10325 10321 10317 10313 10309 10306 10302 10298 10294 10289 10285 10281 10276 10271 10266 10262 10257 10253 10248 10245 10242 10240 10238 10237 10237
10284 10289 10294 10298 10302 10309 10315 10320 10326 10330 10333 10337 10338 10337 10336 10334 10332 10330 10328 10325 10322 10319 10315 10312 10309 10305 10302 10299 10295 10291 10287 10283 10280 10276 10272 10268 10264 10260 10257 10253 10251 10248 10245 10243
10276 10279 10285 10289 10294 10300 10307 10313 10316 10321 10326 10330 10332 10332 10331 10331 10330 10328 10327 10324 10322 10320 10317 10314 10311 10308 10305 10301 10298 10295 10292 10288 10285 10281 10278 10275 10272 10269 10266 10263 10260 10258 10256 10255
10265 10270 10276 10279 10283 10289 10294 10302 10309 10313 10318 10319 10322 10325 10326 10326 10326 10324 10323 10322 10321 10320 10318 10315 10313 10310 10308 10304 10301 10298 10295 10292 10289 10286 10283 10279 10276 10273 10270 10267 10265 10263 10260 10258
10255 10257 10262 10269 10271 10278 10286 10293 10300 10301 10305 10308 10313 10318 10320 10320 10321 10320 10319 10318 10318 10317 10316 10314 10312 10309 10307 10304 10302 10299 10296 10293 10290 10287 10285 10282 10278 10275 10272 10269 10266 10263 10261 10259